TimeCET,TemperatureF,Dew PointF,Humidity,Sea Level PressureIn,VisibilityMPH,Wind Direction,Wind SpeedMPH,Gust SpeedMPH,PrecipitationIn,Events,Conditions,WindDirDegrees,DateUTC
12:00 AM,49,45,80,29.82,,SSW,9.2,,,,,210,2014-01-15 23:00:00
12:00 AM,48.2,44.6,87,29.83,6.2,SSW,6.9,-,N/A,,Scattered Clouds,210,2014-01-15 23:00:00
1:00 AM,50,45,78,29.81,,SSW,9.2,,,,,200,2014-01-16 00:00:00
1:00 AM,50.0,44.6,82,29.80,6.2,Calm,Calm,-,N/A,,Scattered Clouds,0,2014-01-16 00:00:00
1:30 AM,50.0,44.6,82,29.80,6.2,SSW,1.2,-,N/A,,Scattered Clouds,200,2014-01-16 00:30:00
2:00 AM,50,45,78,29.79,,SSW,6.9,,,,,210,2014-01-16 01:00:00
2:00 AM,50.0,44.6,82,29.80,6.2,SSW,5.8,-,N/A,,Scattered Clouds,210,2014-01-16 01:00:00
2:30 AM,50.0,44.6,82,29.80,6.2,SSW,8.1,-,N/A,,Scattered Clouds,210,2014-01-16 01:30:00
3:00 AM,51,46,75,29.80,,SSW,9.2,,,,,210,2014-01-16 02:00:00
3:00 AM,50.0,44.6,82,29.80,6.2,SSW,9.2,-,N/A,,Scattered Clouds,210,2014-01-16 02:00:00
3:30 AM,50.0,44.6,82,29.80,6.2,SSW,11.5,-,N/A,,Scattered Clouds,210,2014-01-16 02:30:00
4:00 AM,52,46,72,29.78,9,SW,12.7,,,,Scattered Clouds,220,2014-01-16 03:00:00
4:00 AM,51.8,44.6,76,29.80,6.2,SW,11.5,-,N/A,,Scattered Clouds,220,2014-01-16 03:00:00
4:30 AM,51.8,46.4,82,29.77,6.2,SSW,12.7,-,N/A,,Scattered Clouds,210,2014-01-16 03:30:00
5:00 AM,52,46,74,29.77,,SSW,13.8,,,,,210,2014-01-16 04:00:00
5:00 AM,51.8,46.4,82,29.77,6.2,SSW,12.7,-,N/A,,Scattered Clouds,210,2014-01-16 04:00:00
5:30 AM,51.8,44.6,76,29.77,6.2,SSW,13.8,-,N/A,,Scattered Clouds,210,2014-01-16 04:30:00
6:00 AM,51,46,77,29.76,,SSW,16.1,,,,,200,2014-01-16 05:00:00
6:00 AM,51.8,46.4,82,29.77,6.2,SSW,15.0,-,N/A,,Scattered Clouds,200,2014-01-16 05:00:00
6:30 AM,51.8,46.4,82,29.74,6.2,SSW,10.4,-,N/A,,Scattered Clouds,200,2014-01-16 05:30:00
7:00 AM,52,46,74,29.75,6,SSW,10.4,,,Rain,Light Drizzle,210,2014-01-16 06:00:00
7:00 AM,51.8,46.4,82,29.77,6.2,SSW,11.5,-,N/A,,Drizzle,210,2014-01-16 06:00:00
7:30 AM,51.8,46.4,82,29.74,6.2,SSW,10.4,-,N/A,,Drizzle,210,2014-01-16 06:30:00
8:00 AM,51,46,77,29.75,,SSW,11.5,,,,,200,2014-01-16 07:00:00
8:00 AM,51.8,44.6,76,29.74,6.2,SSW,10.4,-,N/A,,Scattered Clouds,200,2014-01-16 07:00:00
8:30 AM,50.0,44.6,82,29.77,6.2,Variable,1.2,-,N/A,,Partly Cloudy,0,2014-01-16 07:30:00
9:00 AM,49,46,83,29.77,,SSW,3.5,,,,,210,2014-01-16 08:00:00
9:00 AM,48.2,44.6,87,29.77,6.2,SSW,3.5,-,N/A,,Partly Cloudy,200,2014-01-16 08:00:00
9:30 AM,50.0,44.6,82,29.77,6.2,South,4.6,-,N/A,,Partly Cloudy,180,2014-01-16 08:30:00
10:00 AM,52,46,75,29.77,19,SSW,2.3,,,,Partly Cloudy,200,2014-01-16 09:00:00
10:00 AM,51.8,46.4,82,29.77,6.2,SSW,3.5,-,N/A,,Scattered Clouds,200,2014-01-16 09:00:00
10:30 AM,53.6,46.4,77,29.77,6.2,SSW,15.0,-,N/A,,Scattered Clouds,210,2014-01-16 09:30:00
11:00 AM,55,47,68,29.77,,SW,17.3,,,,,220,2014-01-16 10:00:00
11:00 AM,53.6,46.4,77,29.77,6.2,SSW,18.4,-,N/A,,Mostly Cloudy,210,2014-01-16 10:00:00
11:30 AM,55.4,48.2,77,29.77,6.2,South,15.0,-,N/A,,Mostly Cloudy,190,2014-01-16 10:30:00
12:00 PM,59,48,58,29.75,,SW,10.4,,,,,230,2014-01-16 11:00:00
12:00 PM,57.2,48.2,72,29.77,6.2,SW,10.4,-,N/A,,Scattered Clouds,230,2014-01-16 11:00:00
12:30 PM,57.2,48.2,72,29.74,6.2,SW,11.5,-,N/A,,Partly Cloudy,220,2014-01-16 11:30:00
1:00 PM,61,49,55,29.72,19,SSW,17.3,,,,Scattered Clouds,210,2014-01-16 12:00:00
1:00 PM,59.0,48.2,67,29.74,6.2,SSW,17.3,-,N/A,,Partly Cloudy,210,2014-01-16 12:00:00
1:30 PM,59.0,48.2,67,29.71,6.2,SSW,18.4,-,N/A,,Scattered Clouds,210,2014-01-16 12:30:00
2:00 PM,60,50,60,29.70,,SSW,18.4,,,,,210,2014-01-16 13:00:00
2:00 PM,59.0,48.2,67,29.71,6.2,SSW,17.3,-,N/A,,Scattered Clouds,210,2014-01-16 13:00:00
2:30 PM,59.0,50.0,72,29.71,6.2,SSW,19.6,-,N/A,,Scattered Clouds,200,2014-01-16 13:30:00
3:00 PM,59,50,63,29.70,,SSW,20.7,,,,,200,2014-01-16 14:00:00
3:00 PM,59.0,50.0,72,29.71,6.2,SSW,18.4,-,N/A,,Partly Cloudy,200,2014-01-16 14:00:00
3:30 PM,57.2,48.2,72,29.68,6.2,SSW,18.4,-,N/A,,Partly Cloudy,210,2014-01-16 14:30:00
4:00 PM,58,49,65,29.69,16,SW,16.1,,,,Scattered Clouds,220,2014-01-16 15:00:00
4:00 PM,57.2,48.2,72,29.68,6.2,SSW,16.1,-,N/A,,Partly Cloudy,210,2014-01-16 15:00:00
4:30 PM,57.2,48.2,72,29.71,6.2,SSW,13.8,-,N/A,,Partly Cloudy,210,2014-01-16 15:30:00
5:00 PM,56,50,73,29.69,,SSW,11.5,,,,,200,2014-01-16 16:00:00
5:00 PM,55.4,50.0,82,29.71,6.2,SSW,12.7,-,N/A,,Partly Cloudy,200,2014-01-16 16:00:00
5:30 PM,55.4,50.0,82,29.68,6.2,South,9.2,-,N/A,,Partly Cloudy,190,2014-01-16 16:30:00
6:00 PM,54,50,81,29.70,,South,11.5,,,,,190,2014-01-16 17:00:00
6:00 PM,53.6,50.0,88,29.71,6.2,South,10.4,-,N/A,,Partly Cloudy,190,2014-01-16 17:00:00
6:30 PM,53.6,50.0,88,29.68,6.2,South,9.2,-,N/A,,Partly Cloudy,190,2014-01-16 17:30:00
7:00 PM,53,51,89,29.70,16,South,9.2,,,,Scattered Clouds,190,2014-01-16 18:00:00
7:00 PM,51.8,50.0,94,29.71,6.2,South,9.2,-,N/A,,Partly Cloudy,190,2014-01-16 18:00:00
7:30 PM,51.8,50.0,94,29.71,6.2,South,3.5,-,N/A,,Partly Cloudy,190,2014-01-16 18:30:00
8:00 PM,51,49,89,29.71,,NNE,1.2,,,,,30,2014-01-16 19:00:00
8:00 PM,50.0,48.2,94,29.71,6.2,Calm,Calm,-,N/A,,Partly Cloudy,0,2014-01-16 19:00:00
8:30 PM,51.8,48.2,88,29.71,6.2,Variable,2.3,-,N/A,,Partly Cloudy,0,2014-01-16 19:30:00
9:00 PM,51,48,86,29.70,,SE,6.9,,,,,130,2014-01-16 20:00:00
9:00 PM,51.8,48.2,88,29.71,6.2,SE,5.8,-,N/A,,Partly Cloudy,130,2014-01-16 20:00:00
9:30 PM,50.0,46.4,87,29.71,6.2,Variable,2.3,-,N/A,,Partly Cloudy,0,2014-01-16 20:30:00
10:00 PM,50,47,85,29.70,9,SSW,11.5,,,,Scattered Clouds,200,2014-01-16 21:00:00
10:00 PM,50.0,46.4,87,29.71,6.2,South,11.5,-,N/A,,Partly Cloudy,190,2014-01-16 21:00:00
10:30 PM,50.0,44.6,82,29.71,6.2,SSW,11.5,-,N/A,,Partly Cloudy,200,2014-01-16 21:30:00
11:00 PM,50,44,72,29.70,,SSW,12.7,,,,,210,2014-01-16 22:00:00
11:00 PM,50.0,44.6,82,29.71,6.2,SSW,10.4,-,N/A,,Partly Cloudy,210,2014-01-16 22:00:00
11:30 PM,50.0,42.8,76,29.71,6.2,Variable,1.2,-,N/A,,Partly Cloudy,0,2014-01-16 22:30:00